Location: Gourdan-Polignan
(43.0709°N, 0.5748°E)
Time: 10:16:13
(UTC+00:00)

Meteor 1-10 Rocket - Pass Details

Date: 15 May 2026
Orbit: 834 x 909 km, 81.3° (Epoch: 5 June)

Event Time Altitude Azimuth Distance (km) Brightness Sun altitude
Exits shadow 23:11:30 65° 107° (ESE) 991 4.3 -27.1°
Maximum altitude 23:11:41 66° 96° (E) 988 4.3 -27.1°
Drops below altitude 10° 23:17:34 10° 16° (NNE) 2,603 7.5 -27.3°
Sets 23:20:04 0° 13° (NNE) 3,549 8.5 -27.4°
